Le nostre stazioni meteo in Italia

Pubblicità
Il mio iltempo24.it
London/Heathrow Intl, Gran Bretagna (3772): Temperatura & dewpoint: 15.02.2020 03:00:00 - 21.02.2020 03:00:00 (GMT)London/Heathrow Intl, Gran Bretagna (3772): velocità del vento & gusts: 15.02.2020 03:00:00 - 21.02.2020 03:00:00 (GMT)London/Heathrow Intl, Gran Bretagna (3772): direzione del vento: 15.02.2020 03:00:00 - 21.02.2020 03:00:00 (GMT)London/Heathrow Intl, Gran Bretagna (3772): reduced air pressure: 15.02.2020 03:00:00 - 21.02.2020 03:00:00 (GMT)London/Heathrow Intl, Gran Bretagna (3772): visibility: 15.02.2020 03:00:00 - 21.02.2020 03:00:00 (GMT)London/Heathrow Intl, Gran Bretagna (3772): ore di luce: 15.02.2020 03:00:00 - 21.02.2020 03:00:00 (GMT)London/Heathrow Intl, Gran Bretagna (3772): precipitazioni: 15.02.2020 03:00:00 - 21.02.2020 03:00:00 (GMT)
Data & Tempo tt [°C] td [°C] ff [km/h] ff [kn] fx [km/h] fx [kn] dd ppp [hPa] vv [km] sd [min] rr [mm]
21.02.2020 03:00:00 - - - - - - - - - - -
21.02.2020 02:00:00 4,4 0,9 21 11 - - OSO 1023,4 24 0 0,0
21.02.2020 01:00:00 3,8 0,3 18 10 - - OSO 1023,2 10 0 0,0
21.02.2020 00:00:00 3,9 0,4 22 12 - - OSO 1022,3 10 - 0,0
20.02.2020 23:00:00 4,3 0,3 26 14 - - OSO 1021,6 10 0 0,0
20.02.2020 22:00:00 4,1 0,0 26 14 - - OSO 1020,6 10 0 0,0
20.02.2020 21:00:00 4,2 -0,1 26 14 - - O 1019,6 10 0 0,0
20.02.2020 20:00:00 4,3 -0,2 21 11 - - O 1018,4 10 0 0,0
20.02.2020 19:00:00 5,7 -0,5 28 15 - - O 1017,1 10 0 0,0
20.02.2020 18:00:00 5,7 0,5 22 12 - - O 1015,0 10 0 0,0
20.02.2020 17:00:00 7,0 1,7 28 15 52 28 O 1012,8 10 48 0,0
20.02.2020 16:00:00 7,3 4,1 28 15 - - O 1010,8 10 12 0,0
20.02.2020 15:00:00 6,4 3,5 22 12 57 31 O 1009,4 10 0 0,6
20.02.2020 14:00:00 7,2 5,1 34 18 68 37 O 1007,3 7 0 3,6
20.02.2020 13:00:00 10,0 8,9 39 21 57 31 SSO 1004,8 4,0 0 0,4
20.02.2020 12:00:00 10,1 8,4 31 17 55 30 SSO 1005,6 8 0 0,0
20.02.2020 11:00:00 9,9 8,1 37 20 59 32 SSO 1006,7 20 0 0,0
20.02.2020 10:00:00 10,0 8,0 35 19 55 30 SSO 1007,8 28 0 0,0
20.02.2020 09:00:00 9,8 7,8 31 17 50 27 SSO 1008,3 10 0 0,0
20.02.2020 08:00:00 9,0 7,7 26 14 - - SSO 1008,8 10 0 0,0
20.02.2020 07:00:00 8,5 7,7 24 13 46 25 SSO 1009,5 7 0 0,2
20.02.2020 06:00:00 9,1 7,1 28 15 50 27 SSO 1009,9 30 0 0,0
20.02.2020 05:00:00 9,1 7,0 22 12 - - SO 1010,5 10 0 0,0
20.02.2020 04:00:00 9,2 6,9 26 14 - - SO 1011,3 10 0 0,0
20.02.2020 03:00:00 8,9 7,3 22 12 - - SO 1011,9 10 0 0,0
20.02.2020 02:00:00 8,9 7,7 26 14 - - SO 1012,4 35 0 0,0
20.02.2020 01:00:00 8,6 7,6 22 12 - - SO 1013,1 10 0 0,2
20.02.2020 00:00:00 9,3 6,9 22 12 - - SO 1013,5 10 - 0,0
19.02.2020 23:00:00 9,2 6,7 29 16 - - SO 1014,0 10 0 0,0
19.02.2020 22:00:00 9,0 6,7 24 13 - - SSO 1014,6 30 0 0,0
19.02.2020 21:00:00 9,0 7,1 24 13 - - SO 1015,2 10 0 0,0
19.02.2020 20:00:00 8,7 7,8 18 10 - - SSO 1015,5 9 0 0,0
19.02.2020 19:00:00 9,1 7,3 26 14 - - SO 1016,1 6 0 0,0
19.02.2020 18:00:00 9,2 7,4 18 10 - - SSO 1016,6 10 0 0,0
19.02.2020 17:00:00 8,8 7,3 15 8 - - SSO 1017,3 10 0 0,0
19.02.2020 16:00:00 8,7 7,1 21 11 - - SSO 1018,2 15 0 0,0
19.02.2020 15:00:00 7,8 6,6 16 9 - - SSO 1019,2 10 0 0,2
19.02.2020 14:00:00 7,0 5,9 15 8 - - SSO 1020,3 10 0 0,4
19.02.2020 13:00:00 6,7 5,1 18 10 - - SO 1021,3 10 0 0,4
19.02.2020 12:00:00 6,5 3,7 22 12 - - OSO 1022,2 10 0 0,0
19.02.2020 11:00:00 6,6 2,8 21 11 - - OSO 1022,0 21 0 0,0
19.02.2020 10:00:00 5,8 2,2 16 9 - - OSO 1021,9 10 0 0,0
19.02.2020 09:00:00 4,9 1,6 21 11 - - OSO 1021,9 10 0 0,0
19.02.2020 08:00:00 4,1 1,0 15 8 - - SO 1021,8 10 0 0,0
19.02.2020 07:00:00 3,4 0,5 13 7 - - O 1021,3 27 0 0,0
19.02.2020 06:00:00 2,7 0,2 21 11 - - O 1020,7 10 0 -
19.02.2020 05:00:00 3,2 0,4 18 10 - - O 1019,8 10 0 -
19.02.2020 04:00:00 4,3 0,3 18 10 - - ONO 1018,9 10 0 0,0
19.02.2020 03:00:00 4,2 0,7 24 13 - - O 1018,8 10 0 0,0
19.02.2020 02:00:00 4,1 1,0 21 11 - - O 1018,3 10 0 0,0
19.02.2020 01:00:00 5,3 0,7 22 12 - - ONO 1017,7 10 0 0,0
19.02.2020 00:00:00 5,1 1,7 18 10 - - O 1016,4 10 - 0,0
18.02.2020 23:00:00 5,3 2,6 22 12 - - O 1015,9 10 0 0,0
18.02.2020 22:00:00 6,3 3,4 26 14 - - O 1015,8 10 0 0,2
18.02.2020 21:00:00 6,9 2,9 31 17 - - O 1014,8 10 0 0,0
18.02.2020 20:00:00 7,0 3,8 28 15 - - OSO 1014,6 10 0 0,0
18.02.2020 19:00:00 7,3 3,7 31 17 - - OSO 1014,9 10 0 0,2
18.02.2020 18:00:00 8,8 5,6 28 15 - - SO 1015,1 10 0 0,0
18.02.2020 17:00:00 8,7 5,5 22 12 - - SSO 1015,8 10 0 0,0
18.02.2020 16:00:00 7,9 5,4 21 11 50 27 SO 1016,6 10 0 0,2
18.02.2020 15:00:00 6,6 5,3 34 18 68 37 O 1017,9 8 6 1,6
18.02.2020 14:00:00 11,1 4,1 34 18 54 29 OSO 1017,9 10 12 0,0
18.02.2020 13:00:00 10,5 3,7 31 17 63 34 OSO 1019,0 26 6 0,0
18.02.2020 12:00:00 10,3 3,6 35 19 54 29 OSO 1019,7 10 54 0,0
18.02.2020 11:00:00 9,0 3,2 28 15 54 29 SO 1020,0 10 36 0,0
18.02.2020 10:00:00 7,6 2,9 24 13 - - SO 1020,5 10 24 -
18.02.2020 09:00:00 6,6 2,8 22 12 - - SO 1020,7 10 18 0,0
18.02.2020 08:00:00 5,3 2,5 22 12 - - SO 1020,5 10 0 0,0
18.02.2020 07:00:00 5,0 2,1 21 11 - - SO 1020,2 30 0 0,0
18.02.2020 06:00:00 4,4 1,8 16 9 - - SO 1019,9 10 0 -
18.02.2020 05:00:00 4,8 1,9 22 12 - - OSO 1019,8 10 0 0,0
18.02.2020 04:00:00 4,5 1,5 22 12 - - OSO 1019,3 10 0 0,0
18.02.2020 03:00:00 4,8 1,5 21 11 - - OSO 1019,6 10 0 0,0
18.02.2020 02:00:00 5,1 1,6 18 10 - - OSO 1019,4 10 0 0,0
18.02.2020 01:00:00 5,0 1,9 28 15 - - OSO 1018,8 10 0 0,0
18.02.2020 00:00:00 5,2 1,9 28 15 - - OSO 1018,2 10 - -
17.02.2020 23:00:00 5,2 1,8 28 15 - - OSO 1017,5 25 0 0,0
17.02.2020 22:00:00 5,8 1,3 31 17 - - O 1016,8 10 0 0,0
17.02.2020 21:00:00 6,5 2,0 31 17 52 28 O 1016,1 10 0 0,0
17.02.2020 20:00:00 7,3 3,0 29 16 - - OSO 1015,1 10 0 0,0
17.02.2020 19:00:00 8,0 3,4 31 17 48 26 OSO 1014,2 10 0 0,0
17.02.2020 18:00:00 8,6 2,9 35 19 54 29 O 1013,0 10 0 0,0
17.02.2020 17:00:00 9,1 3,7 31 17 50 27 O 1011,8 10 0 0,0
17.02.2020 16:00:00 10,0 3,7 34 18 50 27 O 1010,7 10 6 0,0
17.02.2020 15:00:00 11,4 4,4 31 17 46 25 OSO 1009,6 26 48 0,0
17.02.2020 14:00:00 11,1 5,2 31 17 59 32 O 1009,1 10 18 0,0
17.02.2020 13:00:00 10,3 4,5 35 19 55 30 OSO 1008,7 35 6 0,0
17.02.2020 12:00:00 10,2 4,2 35 19 54 29 OSO 1008,2 30 6 0,0
17.02.2020 11:00:00 9,6 3,7 35 19 61 33 OSO 1008,0 10 36 0,0
17.02.2020 10:00:00 8,3 2,9 35 19 52 28 SO 1007,5 25 60 0,0
17.02.2020 09:00:00 6,9 2,2 28 15 - - SO 1007,6 30 24 0,0
17.02.2020 08:00:00 6,3 2,0 31 17 61 33 SO 1007,0 45 0 0,0
17.02.2020 07:00:00 6,2 3,0 44 24 68 37 OSO 1006,5 14 0 0,2
17.02.2020 06:00:00 7,2 2,5 29 16 55 30 SO 1006,1 20 0 0,0
17.02.2020 05:00:00 7,4 2,2 35 19 63 34 SO 1005,8 18 0 0,0
17.02.2020 04:00:00 6,8 1,8 28 15 - - SO 1006,3 16 0 0,0
17.02.2020 03:00:00 6,5 1,2 28 15 - - SSO 1006,7 15 0 0,0
17.02.2020 02:00:00 6,5 1,2 31 17 50 27 SO 1006,7 15 0 0,0
17.02.2020 01:00:00 5,9 1,3 29 16 50 27 SO 1006,2 18 0 0,0
17.02.2020 00:00:00 5,6 1,4 28 15 48 26 SO 1005,9 27 - 0,0
16.02.2020 23:00:00 5,9 1,6 39 21 57 31 OSO 1004,5 29 0 0,0
16.02.2020 22:00:00 6,3 1,6 35 19 80 43 OSO 1003,1 10 0 0,0
16.02.2020 21:00:00 7,0 2,6 37 20 83 45 OSO 1002,0 10 0 0,2
16.02.2020 20:00:00 7,7 3,7 37 20 59 32 SO 1000,4 10 0 0,0
16.02.2020 19:00:00 7,6 4,3 31 17 50 27 SO 999,5 10 0 0,0
16.02.2020 18:00:00 7,9 5,3 28 15 - - SO 998,2 10 0 0,0
16.02.2020 17:00:00 7,6 5,3 28 15 59 32 SO 997,3 65 6 0,0
16.02.2020 16:00:00 7,5 5,5 28 15 - - SO 996,3 65 0 0,0
16.02.2020 15:00:00 7,2 5,7 26 14 61 33 SO 995,5 13 0 1,0
16.02.2020 14:00:00 7,7 5,8 37 20 55 30 O 995,3 8 0 2,0
16.02.2020 13:00:00 8,9 7,7 26 14 61 33 OSO 994,0 3,5 0 1,6
16.02.2020 12:00:00 9,8 8,5 22 12 46 25 SO 993,8 10 0 1,0
16.02.2020 11:00:00 10,2 8,3 29 16 48 26 SO 994,0 10 0 0,8
16.02.2020 10:00:00 11,4 8,7 29 16 46 25 SO 994,2 10 0 0,2
16.02.2020 09:00:00 11,0 9,2 26 14 - - SO 993,6 10 0 0,6
16.02.2020 08:00:00 10,0 9,2 31 17 78 42 O 993,6 6 0 4,4
16.02.2020 07:00:00 13,0 11,7 42 23 74 40 SO 991,3 6 0 0,8
16.02.2020 06:00:00 12,9 11,7 39 21 72 39 SSO 991,1 5 0 1,0
16.02.2020 05:00:00 12,7 11,5 41 22 76 41 SSO 991,7 5 0 1,6
16.02.2020 04:00:00 12,6 11,6 42 23 68 37 SSO 992,7 3,4 0 0,8
16.02.2020 03:00:00 12,6 11,3 41 22 74 40 SSO 993,8 20 0 0,2
16.02.2020 02:00:00 12,7 11,5 46 25 78 42 SSO 994,8 5 0 0,4
16.02.2020 01:00:00 12,7 11,4 42 23 67 36 SSO 995,6 4,9 0 0,0
16.02.2020 00:00:00 12,9 11,3 39 21 68 37 SSO 996,6 10 - 0,0
15.02.2020 23:00:00 12,6 11,3 39 21 61 33 SSO 997,2 19 0 0,0
15.02.2020 22:00:00 12,7 11,3 34 18 67 36 SSO 998,2 9 0 0,0
15.02.2020 21:00:00 12,5 11,2 37 20 68 37 SO 999,0 6 0 0,0
15.02.2020 20:00:00 12,3 10,8 41 22 76 41 SO 999,2 7 0 0,2
15.02.2020 19:00:00 12,1 10,6 46 25 68 37 SSO 999,0 5 0 0,0
15.02.2020 18:00:00 11,9 10,2 42 23 80 43 SSO 999,1 4,0 0 0,2
15.02.2020 17:00:00 12,1 10,1 46 25 74 40 SSO 999,7 10 0 0,6
15.02.2020 16:00:00 11,7 10,4 39 21 63 34 SSO 1001,4 7 0 1,4
15.02.2020 15:00:00 11,7 10,2 42 23 76 41 SSO 1002,7 7 0 0,8
15.02.2020 14:00:00 12,1 10,1 41 22 61 33 SSO 1003,8 13 0 0,6
15.02.2020 13:00:00 11,7 10,0 35 19 63 34 SSO 1005,5 10 0 0,2
15.02.2020 12:00:00 12,6 9,4 41 22 65 35 SSO 1006,8 10 0 0,0
15.02.2020 11:00:00 12,8 9,6 37 20 68 37 SSO 1007,4 10 0 0,0
15.02.2020 10:00:00 12,5 9,7 37 20 57 31 SSO 1008,7 10 0 0,0
15.02.2020 09:00:00 11,8 10,1 35 19 52 28 SSO 1009,7 6 0 0,0
15.02.2020 08:00:00 11,4 10,2 29 16 50 27 S 1010,2 10 0 0,0
15.02.2020 07:00:00 11,0 10,3 26 14 - - SSO 1010,8 7 0 0,2
15.02.2020 06:00:00 11,3 10,4 26 14 - - SSO 1011,2 9 0 0,2
15.02.2020 05:00:00 10,6 10,3 21 11 - - SSO 1011,9 6 0 0,2
15.02.2020 04:00:00 10,5 10,1 22 12 - - SSO 1012,7 4,5 0 0,4
15.02.2020 03:00:00 10,2 10,1 16 9 - - S 1013,4 3,7 0 1,0

tt = Temperatura
td = dewpoint
ff = velocità del vento
fx = gusts
dd = direzione del vento
ppp = reduced air pressure
vv = visibility
sd = ore di luce
rr = precipitazioni

Stazioni seguenti

WeatherPro
AMSI
MeteoEarth